Location: Ahausen
(50.4985°N, 8.2722°E)
Time: 11:36:51
(UTC+00:00)

Cosmos 2369 Rocket - Pass Details

Date: 18 September 2020
Orbit: 827 x 854 km, 71.0° (Epoch: 30 October)

Event Time Altitude Azimuth Distance (km) Brightness Sun altitude
Exits shadow 22:59:47 18° 44° (NE) 1,972 4.4 -37.9°
Drops below altitude 10° 23:01:12 10° 39° (NE) 2,468 5.0 -37.9°
Sets 23:03:44 0° 33° (NNE) 3,411 6.0 -38.0°
